Location: Friedrichsthal
(51.5024°N, 10.5919°E)
Time: 07:01:06
(UTC+00:00)

Daily predictions for brighter satellites

Satellite Brightness Start Highest point End
(mag) Time Altitude Azimuth Time Altitude Azimuth Time Altitude Azimuth
Cosmos 1707 Rocket 4.0 19:26:26 10° N 19:30:39 45° ENE 19:34:48 10° SSE
Cosmos 220 Rocket 3.9 19:26:38 10° NNW 19:30:53 81° ENE 19:35:06 10° SSE
Cosmos 1633 3.7 19:28:48 10° SSW 19:32:13 46° WNW 19:35:39 10° N
Cosmos 972 Rocket 4.4 19:27:38 10° NNW 19:32:40 63° WSW 19:37:29 10° S
IRIDIUM 104 4.4 19:27:45 10° S 19:32:54 64° E 19:38:05 10° N
Resurs 01 Rocket 1.6 19:29:22 10° SSE 19:33:46 74° ENE 19:38:13 10° N
Landsat 7 4.5 19:30:54 10° SE 19:35:21 41° ENE 19:39:49 10° N
Cosmos 1441 Rocket 3.4 19:35:44 10° S 19:39:24 49° E 19:43:03 10° NNE
Cosmos 2360 4.4 19:35:55 10° NNW 19:41:39 66° NE 19:47:22 10° SE
IRIDIUM 114 4.3 19:36:50 10° S 19:42:02 75° E 19:47:16 10° N
Cosmos 614 Rocket 4.2 19:38:07 10° S 19:43:06 51° ESE 19:48:10 10° NNE
IGS 5A 3.9 19:41:29 10° SE 19:45:26 45° ENE 19:49:24 10° N
Cosmos 1900 4.3 19:41:25 10° SSW 19:46:21 74° SE 19:51:24 10° NE
USA 267 3.5 19:40:47 10° ENE 19:47:06 49° SE 19:53:23 10° SSW
GP-B 3.9 19:45:04 10° NNE 19:49:07 34° E 19:53:10 10° SSE
IRIDIUM 103 4.4 19:45:57 10° S 19:51:11 88° E 19:56:27 10° N
Cosmos 1821 Rocket 4.0 19:47:20 10° S 19:53:25 72° E 19:59:39 10° NNE
Cosmos 921 Rocket 4.1 19:50:54 10° N 19:54:41 30° ENE 19:58:03 12° ESE
Shenzhou-11 Module 3.9 19:54:26 10° SSW 19:54:50 10° S 19:55:15 10° S
CZ-2C R/B 3.8 19:50:27 10° NNE 19:55:08 87° WNW 19:59:42 10° SSW
COSMOS 2406 3.2 19:49:46 10° SSW 19:55:29 71° ESE 20:01:12 10° NNE
SL-16 R/B 3.6 19:52:18 10° NNW 19:57:09 28° NE 20:02:00 10° E
Cosmos 1862 Rocket 4.1 19:52:52 10° N 19:57:10 43° ENE 20:01:01 12° SE
Intercosmos 25 3.6 19:52:15 10° NNW 19:57:13 75° W 20:00:40 10° S
ERS-1 Rocket 3.6 19:56:08 12° SE 20:00:31 41° ENE 20:05:14 10° N
Lacrosse 5 2.5 19:55:47 10° WNW 20:00:47 54° NNE 20:05:46 10° E
Cosmos 2369 3.8 19:56:43 10° NNW 20:02:30 82° WSW 20:08:05 11° SSE
Cosmos 1862 3.8 20:00:41 10° SSW 20:04:42 66° WNW 20:08:47 10° N
Sich 1 3.0 20:01:10 10° S 20:05:36 83° E 20:10:04 10° NNE
Cosmos 1818 4.1 20:01:57 10° NW 20:07:17 55° WSW 20:12:24 11° SSE
BREEZE-M DEB (TANK) 1.9 20:05:50 10° WSW 20:08:41 50° S 20:09:54 19° ESE
Cosmos 2082 Rocket 2.6 20:05:22 10° S 20:10:40 42° ESE 20:15:59 10° NE
Cosmos 2278 3.7 20:06:02 10° NNW 20:11:48 84° ENE 20:16:44 14° SSE
Cosmos 2123 Rocket 4.0 20:05:35 10° N 20:11:50 77° E 20:18:04 10° SSE
Meteor 2-20 4.5 20:07:24 10° N 20:13:37 88° E 20:19:46 10° S
Spot 2 Rocket 3.5 20:11:25 10° SSE 20:16:29 89° E 20:21:37 10° NNW
Meteor 1-4 Rocket 2.4 20:16:08 10° NNW 20:19:39 86° WSW 20:22:26 15° S
Cosmos 2322 Rocket 3.4 20:14:38 10° NNW 20:19:43 32° NE 20:24:25 12° ESE
CZ-2C R/B 4.1 20:17:53 10° N 20:22:40 39° WNW 20:27:26 10° SW
Cosmos 1184 Rocket 3.3 20:21:01 18° SSE 20:23:08 41° E 20:26:17 10° NNE
CARTOSAT-1 3.8 20:20:05 17° SE 20:23:16 56° ENE 20:27:32 10° N
Cosmos 1190 Rocket 4.0 20:18:11 10° S 20:23:25 67° ESE 20:28:42 10° NNE
USA 234 3.4 20:18:46 15° SE 20:24:20 70° SW 20:30:54 10° WNW
Terra 2.5 20:21:08 17° SE 20:24:27 41° ENE 20:28:56 10° N
Cosmos 407 Rocket 3.5 20:21:02 10° SSW 20:26:22 83° ESE 20:31:41 10° NNE
Cosmos 1933 Rocket 4.4 20:24:16 18° SE 20:26:50 33° E 20:30:49 10° NNE
Cosmos 1605 Rocket 4.2 20:21:08 11° SSE 20:26:54 52° E 20:32:47 10° NNE
Cosmos 1666 Rocket 3.5 20:22:53 10° S 20:27:12 89° WNW 20:31:34 10° N
Cosmos 1238 Rocket 3.0 20:28:02 24° SE 20:29:03 31° E 20:31:43 10° NNE
Okean 1 4.0 20:25:19 10° N 20:29:10 41° ENE 20:31:27 21° SE
Meteor 1-27 Rocket 4.4 20:24:26 10° NNW 20:30:13 58° W 20:36:02 10° S
Cosmos 1437 Rocket 3.7 20:30:12 10° N 20:33:40 31° ENE 20:35:27 21° ESE
Cosmos 2360 Rocket 3.8 20:29:02 10° NNW 20:33:45 26° NE 20:38:27 10° E
CZ-4B DEB 4.3 20:35:36 23° SSE 20:37:33 83° ENE 20:40:56 10° NNW
ERBS 3.6 20:35:12 10° W 20:38:23 42° NNW 20:41:34 10° NE
Meteor 1-19 Rocket 4.4 20:33:22 10° N 20:38:42 54° ENE 20:42:13 21° SE
SPOT 5 2.6 20:35:54 21° SSE 20:38:45 69° ENE 20:43:07 10° N
USA 238 DEB 4.0 20:33:15 10° S 20:39:20 40° ESE 20:45:41 10° NE
USA 238 4.0 20:33:23 10° S 20:39:27 40° ESE 20:45:46 10° NE
Cosmos 1980 Rocket 2.4 20:37:17 10° NW 20:42:56 68° WSW 20:47:05 19° SSE
SPOT 1/Viking Rocket 3.8 20:39:53 14° S 20:44:24 68° WSW 20:49:39 10° NNW
Cosmos 1703 Rocket 4.0 20:40:39 10° N 20:44:53 47° ENE 20:47:05 25° SE
Cosmos 2242 Rocket 3.7 20:40:30 10° N 20:44:56 63° ENE 20:47:29 24° SSE
Cosmos 1763 Rocket 3.8 20:42:37 10° NNW 20:47:53 57° ENE 20:51:08 23° SE
Genesis I 3.6 20:45:01 10° NW 20:48:48 52° SW 20:50:44 25° S
SL-4 R/B 2.1 20:45:23 10° SW 20:49:03 42° SSE 20:51:35 16° E
BREEZE-M DEB (TANK) 2.7 20:46:40 10° WSW 20:49:38 70° S 20:58:17 10° E
Cosmos 405 Rocket 2.9 20:49:22 28° SSE 20:50:54 48° E 20:54:31 10° NNE
ATLAS 5 CENTAUR R/B 4.2 20:47:10 10° WNW 20:51:26 21° WSW 20:56:08 10° SSW
Cosmos 1140 Rocket 3.6 20:46:47 10° SSW 20:52:02 80° WNW 20:57:20 10° NNE
Cosmos 2333 Rocket 4.3 20:49:23 10° NNW 20:53:36 20° NNE 20:57:48 10° E
USA 32 4.1 20:53:03 12° S 20:57:56 82° W 21:03:12 10° N
Cosmos 1697 Rocket 4.1 20:53:28 10° NW 20:58:20 31° WSW 21:03:04 11° SSW
Cosmos 1633 Rocket 3.8 20:56:14 10° SSW 21:00:34 52° WNW 21:04:55 10° N
Cosmos 1833 Rocket 3.3 20:55:48 10° SW 21:01:21 60° NW 21:06:57 10° NNE
Meteor 1-18 Rocket 4.2 21:00:43 10° NNW 21:06:23 88° WSW 21:09:50 24° S
Okean 1-7 3.0 21:02:15 10° N 21:06:36 68° ENE 21:08:30 32° SSE
Cosmos 1867 3.5 21:02:17 10° SSW 21:07:42 72° SE 21:13:10 10° NE
Cosmos 1153 Rocket 4.5 21:03:26 20° S 21:07:43 67° E 21:13:51 10° NNE
CENTAUR R/B 3.1 21:04:46 23° SSE 21:07:54 37° ESE 21:14:12 10° NE
Resurs 01 Rocket 4.2 21:08:11 10° SW 21:10:47 15° W 21:13:25 10° NW
Okean 3 4.4 21:08:36 10° N 21:12:34 35° ENE 21:13:59 28° ESE
FALCON 9 DEB 3.2 21:11:21 10° SW 21:14:45 50° SSE 21:15:22 44° ESE
Meteor 2-4 Rocket 3.8 21:10:20 10° N 21:16:04 66° ENE 21:18:54 30° SSE
Cosmos 1850 Rocket 4.3 21:14:18 28° SSE 21:16:43 48° ESE 21:21:48 10° NE
Cosmos 1515 3.6 21:13:10 10° N 21:17:02 89° W 21:18:23 39° S
SL-27 R/B 3.8 21:19:37 24° E 21:19:37 24° E 21:21:41 10° NE
Cosmos 44 3.6 21:15:43 10° NW 21:20:31 60° NE 21:23:09 27° ESE
ATLAS 5 CENTAUR R/B 2.0 21:18:27 10° NW 21:20:54 62° NE 21:23:25 25° ESE
Cosmos 676 Rocket 4.2 21:15:38 10° SSW 21:20:57 73° WNW 21:26:20 10° NNE
SWARM C 4.4 21:18:43 10° N 21:22:04 88° E 21:22:48 53° S
SWARM A 4.2 21:18:48 10° N 21:22:10 84° W 21:22:57 49° S
Meteor 1-25 Rocket 4.4 21:17:53 12° SSW 21:23:05 70° WNW 21:28:44 10° N
Cosmos 1470 Rocket 4.2 21:19:31 13° SSW 21:23:17 53° WNW 21:27:36 10° N
USA 267 3.4 21:23:51 10° ENE 21:30:24 78° NNW 21:36:57 10° WSW
Cosmos 921 Rocket 4.1 21:29:09 10° NW 21:33:00 34° WSW 21:34:51 23° SSW
NOSS 3-2 (A) 3.3 21:27:58 10° SW 21:33:45 77° SE 21:40:28 10° NE
ERS-1 Rocket 4.2 21:36:09 17° SSW 21:39:24 34° W 21:43:59 10° NNW
NOSS 3-2 (C) 3.4 21:35:51 21° SSW 21:39:41 58° SE 21:46:11 10° NE
Cosmos 841 Rocket 3.5 21:34:40 10° NNW 21:39:55 79° ENE 21:42:00 38° SE
Cosmos 540 Rocket 3.4 21:36:10 10° NNW 21:41:21 78° ENE 21:43:22 38° SE
SL-16 R/B 2.2 21:36:10 10° NNW 21:41:51 75° WSW 21:44:17 35° SSE
Lacrosse 5 1.9 21:38:53 10° WNW 21:43:54 64° SW 21:45:31 41° SSE
Cosmos 1741 Rocket 3.9 21:48:23 29° SSW 21:51:06 83° ESE 21:56:26 10° NNE
Cosmos 1570 Rocket 4.0 21:45:51 10° NNW 21:51:12 84° WSW 21:53:10 40° SSE
Tsikada Rocket 4.3 21:45:52 10° N 21:52:10 57° ENE 21:54:55 33° SE
Cosmos 2219 Rocket 3.5 21:47:46 10° NNW 21:52:56 34° NE 21:56:38 17° E
Cosmos 2208 Rocket 3.9 21:47:59 10° NNW 21:53:19 86° ENE 21:55:11 42° SSE
Cosmos 1814 Rocket 3.9 21:48:28 10° NNW 21:53:42 83° ENE 21:55:32 42° SSE
Cosmos 2082 Rocket 3.3 21:49:21 10° WSW 21:54:47 43° NW 22:00:13 10° NNE
Cosmos 2237 4.2 21:52:32 10° NNW 21:58:17 79° ENE 22:00:35 38° SE
Cosmos 2084 Rocket 4.1 21:59:01 38° E 21:59:01 38° E 22:02:23 10° NE
Terra 3.2 22:00:02 21° SW 22:02:18 31° W 22:06:32 10° NNW
Cosmos 2322 Rocket 2.4 21:58:33 10° NW 22:04:11 64° WSW 22:06:13 39° S
EO 1 Del DPAF 3.9 22:01:37 10° NNE 22:04:57 40° E 22:04:57 40° E
USA 234 4.5 22:06:06 21° SSW 22:08:09 25° SW 22:13:23 10° WNW
Cosmos 2100 Rocket 4.1 22:05:35 27° SSW 22:09:04 73° WNW 22:15:15 10° N
Cosmos 1437 Rocket 4.4 22:06:40 10° NW 22:09:48 25° W 22:10:50 22° WSW
Meteor 1-11 Rocket 3.7 22:09:09 42° SSE 22:11:02 68° E 22:16:46 10° NNE
Cosmos 1242 Rocket 2.8 22:08:31 10° N 22:12:05 55° ENE 22:12:07 55° ENE
Cosmos 1869 Rocket 4.1 22:13:01 34° SW 22:14:40 55° WNW 22:19:05 10° N
ERBS 4.1 22:12:12 10° WNW 22:15:12 30° N 22:18:11 10° ENE
Cosmos 2360 Rocket 2.1 22:12:45 10° NNW 22:18:28 84° WSW 22:20:20 45° SSE
COSMOS 2428 3.6 22:14:00 10° NNW 22:19:29 43° NE 22:22:37 23° ESE
Geosat 4.5 22:20:48 39° SSW 22:22:03 47° WSW 22:26:55 10° NW
ATLAS 3B R/B 2.9 22:21:12 39° SSE 22:22:48 46° ESE 22:29:05 10° NE
Iridium 4 Rocket 3.8 22:21:45 33° SW 22:23:09 45° W 22:27:13 10° N
Cosmos 2173 Rocket 4.3 22:21:11 26° SSW 22:24:41 61° WNW 22:30:47 10° N
CRYOSAT 2 4.4 22:20:29 10° N 22:25:23 79° W 22:26:46 48° SSW
Cosmos 1980 Rocket 4.5 22:23:35 10° WNW 22:25:52 12° W 22:28:07 10° WSW
Cosmos 1500 4.2 22:25:10 32° WSW 22:26:05 38° WNW 22:29:38 10° N
ALOS 2 2.6 22:27:44 60° SE 22:28:27 76° ENE 22:32:51 10° NNW
SL-4 R/B 2.6 22:24:45 10° W 22:27:13 39° W 22:27:13 39° W
Cosmos 1725 Rocket 4.0 22:27:19 39° S 22:29:55 89° E 22:36:18 10° N
USA 238 DEB 4.1 22:23:23 10° WSW 22:30:02 64° NW 22:37:02 10° NE
USA 238 4.1 22:23:29 10° WSW 22:30:08 65° NW 22:37:08 10° NE
Cosmos 1674 Rocket 3.4 22:28:21 10° N 22:32:42 83° E 22:33:13 68° SSE
SL-08 R/B 4.4 22:32:18 39° SSW 22:34:46 84° W 22:40:54 10° N
Cosmos 1536 2.7 22:34:39 76° SW 22:34:56 83° W 22:38:56 10° N
Cosmos 1666 2.8 22:37:32 60° W 22:37:43 62° WNW 22:41:28 10° N
Cosmos 1743 3.4 22:38:17 42° E 22:38:17 42° E 22:41:45 10° NNE
Cosmos 2333 Rocket 2.4 22:33:15 10° NNW 22:39:01 66° NE 22:41:19 37° SE
Cosmos 1271 Rocket 2.9 22:37:03 10° N 22:40:47 60° ENE 22:40:47 60° ENE
Cosmos 1356 3.8 22:41:30 59° NW 22:41:30 59° NW 22:44:43 10° N
Cosmos 2016 Rocket 4.3 22:39:51 32° SSW 22:42:54 66° WNW 22:49:17 10° N
Cosmos 2237 Rocket 3.7 22:38:03 10° NNW 22:43:04 31° NE 22:47:32 12° ESE
MOS 1-B Rocket 4.2 22:38:16 10° N 22:43:57 61° WNW 22:46:43 29° SW
Cosmos 2061 Rocket 4.2 22:41:23 32° SSW 22:44:18 64° WNW 22:50:29 10° N
Lacrosse 4 Rocket 2.5 22:45:23 32° E 22:45:23 32° E 22:48:26 10° NE
Cosmos 1733 Rocket 3.2 22:50:59 57° SW 22:51:41 68° WNW 22:56:06 10° N
Cosmos 1066 Rocket 4.4 22:46:29 10° NNW 22:52:10 62° W 22:53:46 44° SSW
SL-27 R/B 4.2 22:53:08 23° W 22:53:55 26° WNW 22:56:46 10° N
Meteor 1-23 Rocket 4.5 22:48:13 10° NNW 22:53:59 63° W 22:55:43 44° SSW
Thor Agena Rocket 3.8 22:50:11 10° N 22:55:12 62° WNW 22:56:59 39° SW
Cosmos 44 Rocket 3.7 22:50:32 10° NW 22:55:27 60° NE 22:57:31 34° ESE
Cosmos 836 Rocket 4.4 22:51:37 10° NNW 22:56:53 88° ENE 22:58:03 55° SSE
CENTAUR R/B 3.0 22:51:57 10° WSW 22:58:10 67° NW 23:05:36 10° NE
Cosmos 968 Rocket 3.7 22:59:01 48° SE 22:59:33 51° ESE 23:04:31 10° NNE
Cosmos 44 4.5 22:57:17 10° WNW 23:01:31 29° WSW 23:01:32 29° WSW
Cosmos 1975 3.6 23:02:22 39° E 23:02:22 39° E 23:06:00 10° NNE
SL-24 DEB 4.2 22:59:48 10° N 23:04:36 72° E 23:05:18 61° SSE
Cosmos 1782 Rocket 4.0 23:10:37 45° ESE 23:10:48 46° E 23:14:58 10° NNE
Cosmos 1378 3.8 23:09:09 10° NNW 23:12:29 46° WNW 23:12:29 46° WNW
USA 267 3.9 23:06:46 10° ENE 23:13:08 56° N 23:19:30 10° WNW
Cosmos 1707 4.1 23:12:11 10° N 23:15:41 29° ENE 23:16:13 28° E
Cosmos 2233 Rocket 4.2 23:14:31 38° SSW 23:16:58 67° WNW 23:23:19 10° N
Cosmos 1464 Rocket 4.3 23:15:36 40° SE 23:17:32 56° E 23:23:36 10° NNE
Cosmos 1842 3.2 23:13:45 10° N 23:17:41 76° ENE 23:17:41 76° ENE
Cosmos 1908 Rocket 3.4 23:18:33 75° SSW 23:18:55 88° WNW 23:23:18 10° N
Cosmos 2344 4.5 23:10:51 10° NW 23:19:42 71° NE 23:31:59 10° ESE
Helios 1B rocket 3.8 23:18:18 10° NE 23:21:49 27° E 23:21:49 27° E
Meteor 1-21 4.3 23:17:43 10° N 23:23:35 78° ENE 23:25:22 46° SSE
Cosmos 2227 Rocket 4.1 23:22:42 14° ESE 23:23:51 15° E 23:26:59 10° ENE
SL-16 R/B 4.2 23:22:08 10° WNW 23:24:59 14° W 23:26:08 13° WSW
Lacrosse 5 3.9 23:23:02 10° W 23:24:41 15° WSW 23:24:41 15° WSW
Cosmos 1378 Rocket 4.4 23:24:22 10° NNW 23:28:28 37° W 23:28:49 36° WSW
Cosmos 2322 4.0 23:23:11 10° NW 23:28:37 48° WSW 23:29:31 44° SW
NOSS 3-2 (C) 4.5 23:25:00 10° WSW 23:30:50 47° NNW 23:37:35 10° NE
Cosmos 1833 4.4 23:28:45 38° SW 23:30:56 69° WNW 23:36:37 10° NNE
COSMOS 2487 3.3 23:32:14 44° NW 23:32:14 44° NW 23:35:24 10° NNE
Nadezhda 4 Rocket 4.1 23:29:18 10° N 23:35:38 69° ENE 23:38:03 39° SSE
Cosmos 2219 Rocket 2.3 23:31:38 10° NW 23:37:14 59° WSW 23:38:19 50° SSW
Cosmos 783 Rocket 4.4 23:35:56 10° NNW 23:41:12 84° WSW 23:42:23 55° SSE
Cosmos 1975 Rocket 3.0 23:37:32 10° NNW 23:42:02 73° W 23:42:25 68° SW
Cosmos 1513 Rocket 4.5 23:42:38 45° S 23:44:49 87° E 23:51:18 10° N
Cosmos 1437 4.2 23:42:17 10° N 23:44:31 32° NE 23:44:31 32° NE
Okean 2 Rocket 3.7 23:45:22 41° ESE 23:45:57 43° E 23:50:13 10° NNE
Cosmos 2034 Rocket 4.1 23:43:53 41° SSE 23:46:00 65° E 23:52:16 10° NNE
Cosmos 2322 Rocket 4.4 23:45:18 10° WNW 23:47:06 11° W 23:48:01 11° WSW
Cosmos 1503 Rocket 4.0 23:45:55 55° S 23:47:09 82° ESE 23:52:34 10° NNE
YAOGAN 11 4.4 23:48:26 51° WSW 23:48:47 53° W 23:53:19 10° NNW
Cosmos 1072 Rocket 4.4 23:46:51 46° SSW 23:48:49 85° W 23:54:59 10° N
Landsat 4 3.7 23:45:30 10° NNE 23:49:12 77° ENE 23:49:12 77° ENE
Helios 1A 3.7 23:49:48 41° W 23:49:48 41° W 23:53:47 10° NNW
Cosmos 1092 Rocket 4.4 23:43:39 10° N 23:49:49 57° ENE 23:52:45 31° SE
SL-16 R/B 3.6 23:46:15 15° SE 23:51:00 41° ENE 23:56:48 10° N
ERBS 3.3 23:48:36 10° WNW 23:51:02 42° NW 23:51:02 42° NW
CZ-2D R/B 3.9 23:48:26 10° NE 23:52:37 22° E 23:54:54 17° ESE
Cosmos 1300 Rocket 4.0 23:52:28 44° ESE 23:52:55 46° E 23:57:04 10° NNE
SL-16 R/B 3.5 23:48:01 10° NNW 23:53:19 37° NE 23:58:34 10° ESE
Cosmos 1486 Rocket 4.4 23:52:11 38° WSW 23:53:55 57° WNW 23:59:04 10° NNE
Cosmos 1544 3.8 23:54:38 44° WNW 23:54:38 44° WNW 23:58:04 10° N
